Calgary Springbank,

8:56 PM MDT on October 18, 2017 (GMT -0600)
Calgary Springbank

Weather History for CYBW - November, 2012

Change the Weather History Date:

Saturday, November 24, 2012

  Actual Average Record
Temperature  
Mean Temperature 25 °F -  
Max Temperature 35 °F 28 °F 57 °F (2005)
Min Temperature 15 °F 9 °F -22 °F (2010)
Degree Days  
Heating Degree Days 40    
Moisture  
Dew Point 17 °F    
Average Humidity 73    
Maximum Humidity 93    
Minimum Humidity 48    
Precipitation  
Precipitation 0.00 in - - ()
Sea Level Pressure  
Sea Level Pressure 30.11 in    
Wind  
Wind Speed 5 mph ()    
Max Wind Speed 10 mph    
Max Gust Speed -    
Visibility 15.0 miles    
Events      
Averages and records for this station are not official NWS values.
T = Trace of Precipitation, MM = Missing Value Source: Averaged Metar Reports

Daily Weather History Graph

Daily Weather History Graph

Search for Another Location

Airport or City:

Trip Planner

Search our weather history database for the weather conditions in past years. The results will help you decide how hot, cold, wet, or windy it might be!

Date:

Astronomy

Nov. 24, 2012 Rise Set
Actual Time 8:09 AM MST 4:38 PM MST
Civil Twilight 7:31 AM MST 5:16 PM MST
Nautical Twilight 6:50 AM MST 5:57 PM MST
Astronomical Twilight 6:11 AM MST 6:37 PM MST
Moon 2:42 PM MST (11/24) 4:11 AM MST (11/24)
Length of Visible Light 9h 44m
Length of Day
8h 28m
Waxing Gibbous, 87% of the Moon is Illuminated
Nov 24
Waxing Gibbous
Nov 28
Full
Dec 6
Last Quarter
Dec 13
New
Dec 19
First Quarter

Hourly Weather History & Observations

Time (MST) Temp. Windchill Dew Point Humidity Pressure Visibility Wind Dir Wind Speed Gust Speed Precip Events Conditions
5:00 AM 22 °F - 18 °F 80% 30.04 in 15 mi West 6.9 mph - -   Scattered Clouds
5:00 AM 21.2 °F 14.9 °F 19.4 °F 93% 30.04 in 15.0 mi NW 4.6 mph - N/A   Partly Cloudy
6:00 AM 17.6 °F 5.7 °F 14.0 °F 86% 30.06 in 15.0 mi NNW 10.4 mph - N/A   Partly Cloudy
7:00 AM 21.2 °F 16.4 °F 19.4 °F 93% 30.07 in 15.0 mi WNW 3.5 mph - N/A   Scattered Clouds
8:00 AM 19.4 °F 11.5 °F 17.6 °F 93% 30.10 in 30.0 mi NW 5.8 mph - N/A   Mostly Cloudy
9:00 AM - - - N/A% - 30.0 mi North - - N/A   Scattered Clouds
9:15 AM 19.4 °F 14.3 °F 17.6 °F 93% 30.12 in 30.0 mi NW 3.5 mph - N/A   Scattered Clouds
10:00 AM 21.2 °F 16.4 °F 17.6 °F 86% 30.13 in 30.0 mi NNE 3.5 mph - N/A   Partly Cloudy
11:00 AM 26 °F - 21 °F 73% 30.12 in 28 mi West 2.3 mph - -   Scattered Clouds
11:00 AM 26.6 °F - 21.2 °F 80% 30.12 in 30.0 mi Calm Calm - N/A   Partly Cloudy
12:00 PM 28.4 °F - 21.2 °F 74% 30.10 in 30.0 mi Calm Calm - N/A   Partly Cloudy
1:00 PM 30.2 °F 26.7 °F 21.2 °F 69% 30.09 in 30.0 mi East 3.5 mph - N/A   Partly Cloudy
2:00 PM 32.0 °F - 21.2 °F 64% 30.09 in 30.0 mi South 2.3 mph - N/A   Mostly Cloudy
3:00 PM 35.6 °F 31.7 °F 19.4 °F 52% 30.08 in 30.0 mi NNW 4.6 mph - N/A   Scattered Clouds
4:00 PM 33.8 °F 29.6 °F 15.8 °F 48% 30.10 in 30.0 mi WNW 4.6 mph - N/A   Scattered Clouds
5:00 PM 24 °F - 14 °F 52% 30.14 in 28 mi West 10.4 mph - -   Mostly Cloudy
5:00 PM 24.8 °F 14.6 °F 14.0 °F 64% 30.13 in 30.0 mi West 10.4 mph - N/A   Mostly Cloudy
6:00 PM 23.0 °F 17.0 °F 12.2 °F 63% 30.16 in 15.0 mi WNW 4.6 mph - N/A   Mostly Cloudy
7:00 PM 24.8 °F 16.1 °F 14.0 °F 64% 30.16 in 15.0 mi NNE 8.1 mph - N/A   Mostly Cloudy
8:00 PM 23.0 °F 13.9 °F 14.0 °F 68% 30.17 in 15.0 mi ENE 8.1 mph - N/A   Mostly Cloudy
9:00 PM 23.0 °F 18.4 °F 14.0 °F 68% - 15.0 mi South 3.5 mph - N/A   Scattered Clouds
10:00 PM 23.0 °F 18.4 °F 14.0 °F 68% 30.18 in 15.0 mi East 3.5 mph - N/A   Mostly Cloudy